GW6354 Weather Reports


Display with metric or nautical units.
time (UTC)temp
F
wind
direction
speed
MPH
gust
MPH
rain 1hr
in
rain 24hr
in
rain mn
in
humidity
%
barometer
mb
20260507223523 54 185 3.0 3.0 0.00 0.02 0.00 88 1016.3
20260507222517 54 140 2.0 2.0 0.00 0.02 0.00 87 1016.4
20260507221521 55 87 4.0 5.0 0.00 0.02 0.00 86 1016.3
20260507220516 54 212 0.0 0.0 0.00 0.02 0.00 89 1016.4
20260507215539 55 151 1.0 2.0 0.00 0.02 0.02 88 1016.3
20260507214523 55 74 2.0 3.0 0.00 0.02 0.02 88 1016.2
20260507213517 55 126 4.0 5.0 0.00 0.02 0.02 88 1016.1
20260507212522 55 117 3.0 4.0 0.00 0.02 0.02 88 1016.0
20260507211535 55 82 2.0 3.0 0.00 0.02 0.02 90 1016.0
20260507210520 55 84 2.0 2.0 0.00 0.02 0.02 92 1016.0
20260507205543 54 105 2.0 3.0 0.00 0.02 0.02 91 1016.0
20260507204516 54 173 2.0 3.0 0.00 0.02 0.02 90 1015.9
20260507203520 55 135 2.0 3.0 0.00 0.02 0.02 91 1015.8
20260507202524 55 195 3.0 4.0 0.00 0.02 0.02 91 1015.7
20260507201518 55 121 3.0 3.0 0.00 0.02 0.02 93 1015.5
20260507200523 58 137 3.0 4.0 0.00 0.02 0.02 90 1015.3
20260507195536 58 120 1.0 1.0 0.00 0.02 0.02 88 1015.2
20260507194521 58 320 2.0 2.0 0.00 0.02 0.02 90 1015.2
20260507193523 57 339 5.0 6.0 0.00 0.02 0.02 91 1015.0
20260507192517 56 47 2.0 2.0 0.00 0.02 0.02 91 1014.8
20260507191521 57 63 2.0 2.0 0.00 0.02 0.02 85 1014.6
20260507190515 60 232 5.0 6.0 0.00 0.02 0.02 81 1014.5
20260507185519 60 242 6.0 6.0 0.00 0.02 0.02 79 1014.4
20260507184523 60 246 4.0 4.0 0.00 0.02 0.02 79 1014.2
20260507183536 61 240 4.0 4.0 0.00 0.02 0.02 78 1014.1
20260507182520 61 268 5.0 5.0 0.00 0.02 0.02 78 1014.1
20260507181524 62 224 1.0 1.0 0.00 0.02 0.02 73 1013.9
20260507180538 62 233 4.0 4.0 0.00 0.02 0.02 71 1013.9
20260507175522 63 222 3.0 4.0 0.00 0.02 0.02 69 1013.8
20260507174516 63 218 4.0 5.0 0.00 0.02 0.02 68 1013.8
20260507173520 64 236 4.0 5.0 0.00 0.02 0.02 68 1013.8
20260507172523 65 227 3.0 3.0 0.00 0.02 0.02 66 1013.8
20260507171518 64 242 2.0 2.0 0.00 0.02 0.02 70 1013.8
20260507170522 64 223 2.0 2.0 0.00 0.02 0.02 69 1013.8
20260507165601 65 155 1.0 2.0 0.00 0.02 0.02 65 1013.8
20260507164520 65 307 0.0 1.0 0.00 0.12 0.02 66 1013.7
20260507163523 64 233 3.0 4.0 0.00 0.12 0.02 67 1013.7
20260507162517 64 232 5.0 6.0 0.00 0.12 0.02 67 1013.8
20260507161542 64 219 3.0 4.0 0.00 0.12 0.02 67 1013.7
20260507160535 64 187 6.0 7.0 0.00 0.12 0.02 68 1013.7
20260507155519 65 0.0 0.0 0.00 0.12 0.02 64 1013.8
20260507154523 65 0.0 0.0 0.00 0.12 0.02 61 1013.8
20260507153517 65 197 6.0 8.0 0.00 0.12 0.02 55 1013.7
20260507152541 66 227 9.0 10.0 0.00 0.12 0.02 49 1013.5
20260507151514 67 242 9.0 11.0 0.00 0.12 0.02 48 1013.2
20260507150518 68 233 10.0 12.0 0.00 0.12 0.02 51 1013.0
20260507145542 67 215 9.0 13.0 0.00 0.12 0.02 55 1012.7
20260507144516 67 213 12.0 16.0 0.00 0.12 0.02 60 1012.6
20260507143600 67 198 10.0 13.0 0.00 0.12 0.02 64 1012.5
20260507142524 68 186 11.0 14.0 0.00 0.12 0.02 63 1012.5
20260507141518 69 212 10.0 15.0 0.00 0.12 0.02 57 1012.4
20260507140522 69 218 12.0 14.0 0.00 0.12 0.02 62 1012.5
20260507135516 69 219 11.0 12.0 0.00 0.12 0.02 54 1012.5
20260507134520 69 205 8.0 11.0 0.00 0.12 0.02 54 1012.5
20260507133524 69 217 12.0 15.0 0.00 0.12 0.02 59 1012.6
20260507132518 68 0.0 0.0 0.00 0.12 0.02 55 1012.7
20260507131541 68 196 8.0 12.0 0.00 0.12 0.02 62 1012.6
20260507130516 68 189 11.0 14.0 0.00 0.12 0.02 62 1012.7
20260507125520 68 203 9.0 13.0 0.00 0.12 0.02 69 1012.8
20260507124523 68 198 11.0 13.0 0.00 0.12 0.02 65 1012.8
20260507123517 68 213 11.0 14.0 0.00 0.12 0.02 64 1012.8
20260507122521 68 206 11.0 15.0 0.00 0.12 0.02 63 1012.8
20260507121535 68 190 11.0 15.0 0.00 0.12 0.02 66 1012.8
20260507120519 68 207 10.0 14.0 0.00 0.12 0.02 69 1012.8
20260507115535 67 201 14.0 15.0 0.00 0.12 0.02 64 1013.0
20260507114518 67 195 12.0 15.0 0.00 0.12 0.02 65 1013.0
20260507113521 67 203 12.0 14.0 0.00 0.13 0.02 65 1013.0
20260507112523 67 198 10.0 13.0 0.00 0.13 0.02 65 1013.1
20260507111515 67 186 12.0 15.0 0.00 0.13 0.02 65 1013.2
20260507110518 67 197 11.0 13.0 0.00 0.13 0.02 62 1013.1
20260507105520 66 193 11.0 14.0 0.00 0.13 0.02 64 1013.3
20260507104523 66 194 12.0 17.0 0.00 0.13 0.02 65 1013.3
20260507103514 67 201 12.0 16.0 0.00 0.13 0.02 62 1013.4
20260507102537 67 221 12.0 15.0 0.00 0.13 0.02 64 1013.4
20260507101519 67 198 14.0 18.0 0.00 0.13 0.02 58 1013.5
20260507100522 67 185 11.0 14.0 0.01 0.13 0.02 64 1013.3
20260507095525 67 182 10.0 13.0 0.01 0.13 0.02 65 1013.4
20260507094517 66 193 13.0 17.0 0.01 0.13 0.02 65 1013.3
20260507093519 67 188 12.0 16.0 0.01 0.13 0.02 65 1013.3
20260507092548 66 208 15.0 18.0 0.01 0.14 0.02 64 1013.2
20260507091524 66 0.0 0.0 0.01 0.14 0.01 65 1013.3
20260507090516 66 0.0 0.0 0.00 0.13 0.01 69 1013.2
20260507085539 66 0.0 0.0 0.00 0.13 0.01 68 1013.2
20260507084522 66 180 12.0 16.0 0.00 0.13 0.01 69 1013.2
20260507083524 65 193 11.0 16.0 0.00 0.13 0.01 66 1013.2
20260507082536 65 202 14.0 18.0 0.00 0.14 0.01 67 1013.1
20260507081519 66 173 13.0 17.0 0.00 0.14 0.01 68 1013.0
20260507080601 66 190 10.0 14.0 0.00 0.16 0.01 71 1013.0
20260507075544 66 172 9.0 12.0 0.00 0.18 0.01 70 1013.0
20260507074516 66 183 9.0 11.0 0.00 0.18 0.01 73 1013.0
20260507073518 66 182 8.0 12.0 0.00 0.19 0.01 71 1012.8
20260507072541 65 165 5.0 7.0 0.00 0.20 0.01 75 1012.8
20260507071544 64 165 8.0 11.0 0.00 0.22 0.01 76 1012.8
20260507070536 64 0.0 0.0 0.00 0.23 0.01 78 1012.8
20260507065618 63 174 7.0 11.0 0.00 0.24 0.01 77 1012.6
20260507064520 65 0.0 0.0 0.00 0.24 0.01 76 1012.6
20260507063523 64 0.0 0.0 0.00 0.26 0.01 77 1012.6
20260507062516 63 161 6.0 7.0 0.00 0.27 0.01 79 1012.4
20260507061518 63 91 3.0 5.0 0.00 0.28 0.01 80 1012.4
20260507060521 61 88 4.0 4.0 0.00 0.28 0.01 84 1012.5
20260507055523 61 148 5.0 7.0 0.00 0.28 0.01 85 1012.4
20260507054515 62 90 4.0 5.0 0.00 0.29 0.01 83 1012.3
20260507053518 62 101 5.0 6.0 0.00 0.30 0.01 86 1012.1
20260507052520 60 102 5.0 6.0 0.00 0.38 0.01 88 1012.1
20260507051543 60 139 3.0 3.0 0.00 0.38 0.01 89 1012.1
20260507050515 59 96 3.0 3.0 0.00 0.38 0.01 90 1011.9
20260507045538 58 97 4.0 4.0 0.00 0.38 0.01 92 1011.8
20260507044520 58 168 2.0 3.0 0.01 0.38 0.01 92 1011.7
20260507043522 59 178 2.0 2.0 0.01 0.38 0.01 91 1011.7
20260507042516 59 123 2.0 3.0 0.01 0.38 0.01 92 1011.6
20260507041540 59 0.0 0.0 0.01 0.38 0.01 90 1011.6
20260507040520 60 203 1.0 1.0 0.01 0.38 0.01 88 1011.4
20260507035522 60 70 3.0 3.0 0.00 0.38 0.00 86 1011.4
20260507034514 60 71 4.0 4.0 0.00 0.38 0.00 87 1011.3
20260507033517 60 0.0 0.0 0.00 0.38 0.00 86 1011.3
20260507032520 60 84 4.0 5.0 0.00 0.38 0.00 86 1011.4
20260507031522 61 81 4.0 4.0 0.00 0.38 0.00 85 1011.4
20260507030515 61 65 4.0 5.0 0.00 0.38 0.00 86 1011.4
20260507025517 60 69 4.0 4.0 0.00 0.38 0.00 87 1011.4
20260507024540 61 56 5.0 6.0 0.00 0.38 0.00 85 1011.3
20260507023542 60 61 7.0 9.0 0.00 0.38 0.00 86 1011.2
20260507022524 60 61 7.0 8.0 0.00 0.38 0.00 87 1011.4
20260507021517 60 63 3.0 5.0 0.00 0.38 0.00 88 1011.4
20260507020519 60 115 2.0 3.0 0.00 0.38 0.00 86 1011.4
20260507015542 61 71 3.0 4.0 0.00 0.38 0.00 86 1011.4
20260507014524 60 71 2.0 4.0 0.00 0.38 0.00 87 1011.4
20260507013517 61 28 3.0 3.0 0.00 0.38 0.00 86 1011.4
20260507012519 61 104 1.0 3.0 0.00 0.38 0.00 86 1011.4
20260507011522 60 17 2.0 3.0 0.00 0.38 0.00 86 1011.3
20260507010524 60 200 1.0 2.0 0.00 0.38 0.00 85 1011.4
20260507005517 60 96 3.0 3.0 0.00 0.38 0.00 84 1011.4
20260507004539 60 105 3.0 3.0 0.00 0.38 0.00 83 1011.4
20260507003522 60 96 3.0 3.0 0.00 0.38 0.00 82 1011.4
20260507002524 61 104 4.0 4.0 0.00 0.38 0.00 84 1011.4
20260507001517 61 171 3.0 6.0 0.00 0.38 0.00 84 1011.4
20260507000519 61 154 5.0 7.0 0.00 0.38 0.00 83 1011.4
20260506235522 61 157 5.0 6.0 0.00 0.38 0.00 84 1011.5
20260506234524 60 94 4.0 5.0 0.00 0.38 0.00 84 1011.6
20260506233517 61 83 3.0 4.0 0.00 0.38 0.00 83 1011.6
20260506232519 60 59 3.0 5.0 0.00 0.38 0.00 83 1011.7
20260506231522 60 43 4.0 6.0 0.00 0.38 0.00 82 1011.8
20260506230524 60 64 2.0 2.0 0.00 0.38 0.00 82 1012.0
20260506225517 60 133 4.0 6.0 0.00 0.38 0.00 83 1011.9
20260506224600 60 199 4.0 6.0 0.00 0.38 0.00 82 1011.7